Weather History for KRAL - May, 2013

Change the Weather History Date:

Wednesday, May 15, 2013

  Actual Average Record
Temperature  
Mean Temperature 69 °F 68 °F  
Max Temperature 82 °F 80 °F 103 °F (2014)
Min Temperature 56 °F 56 °F 41 °F (1933)
Degree Days  
Heating Degree Days 0 1  
Month to date heating degree days 6 19  
Since 1 July heating degree days 1168 1439  
Cooling Degree Days 4 4  
Month to date cooling degree days 106 47  
Year to date cooling degree days 196 110  
Growing Degree Days 19 (Base 50)    
Moisture  
Dew Point 52 °F    
Average Humidity 59    
Maximum Humidity 86    
Minimum Humidity 32    
Precipitation  
Precipitation 0.00 in 0.01 in 0.26 in (1894)
Month to date precipitation 0.10 0.27  
Year to date precipitation 2.21 9.06  
Since 1 July precipitation 4.12  
Snow  
Snow 0.00 in - - ()
Month to date snowfall 0.0  
Year to date snowfall 0.0  
Since 1 July snowfall 0.0  
Snow Depth 0.00 in    
Sea Level Pressure  
Sea Level Pressure 29.95 in    
Wind  
Wind Speed 3 mph (West)    
Max Wind Speed 15 mph    
Max Gust Speed 20 mph    
Visibility 10 miles    
Events      
T = Trace of Precipitation, MM = Missing Value Source: NWS Daily Summary

Daily Weather History Graph

Daily Weather History Graph

Search for Another Location

Airport or City:

Trip Planner

Search our weather history database for the weather conditions in past years. The results will help you decide how hot, cold, wet, or windy it might be!

Date:

Astronomy

May. 15, 2013 Rise Set
Actual Time 5:48 AM PDT 7:44 PM PDT
Civil Twilight 5:20 AM PDT 8:12 PM PDT
Nautical Twilight 4:47 AM PDT 8:45 PM PDT
Astronomical Twilight 4:11 AM PDT 9:21 PM PDT
Moon 10:25 AM PDT (5/15) No Moon Set
Length of Visible Light 14h 51m
Length of Day
13h 56m
Waxing Crescent, 28% of the Moon is Illuminated
May 15
Waxing Crescent
May 17
First Quarter
May 24
Full
May 31
Last Quarter
Jun 8
New

Hourly Weather History & Observations

Time (PDT) Temp. Dew Point Humidity Pressure Visibility Wind Dir Wind Speed Gust Speed Precip Events Conditions
12:53 AM 62.1 °F 51.1 °F 67% 29.96 in 10.0 mi Calm Calm - N/A   Clear
1:53 AM 59.0 °F 52.0 °F 78% 29.95 in 10.0 mi Calm Calm - N/A   Clear
2:53 AM 59.0 °F 52.0 °F 78% 29.95 in 10.0 mi Calm Calm - N/A   Clear
3:53 AM 57.9 °F 52.0 °F 81% 29.95 in 10.0 mi Calm Calm - N/A   Clear
4:53 AM 57.9 °F 52.0 °F 81% 29.96 in 10.0 mi Calm Calm - N/A   Clear
5:53 AM 57.0 °F 52.0 °F 83% 29.97 in 9.0 mi Calm Calm - N/A   Clear
6:53 AM 57.9 °F 53.1 °F 84% 29.99 in 8.0 mi Calm Calm - N/A   Clear
7:53 AM 60.1 °F 53.1 °F 78% 30.00 in 9.0 mi Calm Calm - N/A   Partly Cloudy
8:53 AM 63.0 °F 53.1 °F 70% 30.00 in 9.0 mi Calm Calm - N/A   Clear
9:53 AM 66.9 °F 53.1 °F 61% 29.99 in 10.0 mi Calm Calm - N/A   Clear
10:53 AM 71.1 °F 50.0 °F 47% 29.99 in 10.0 mi West 4.6 mph - N/A   Clear
11:53 AM 75.9 °F 51.1 °F 42% 29.98 in 10.0 mi Calm Calm - N/A   Clear
12:53 PM 78.1 °F 46.9 °F 33% 29.96 in 10.0 mi Variable 5.8 mph - N/A   Clear
1:53 PM 81.0 °F 51.1 °F 35% 29.94 in 10.0 mi West 6.9 mph 16.1 mph N/A   Scattered Clouds
2:53 PM 80.1 °F 51.1 °F 36% 29.92 in 10.0 mi Variable 6.9 mph 16.1 mph N/A   Scattered Clouds
3:53 PM 80.1 °F 50.0 °F 35% 29.91 in 10.0 mi West 10.4 mph - N/A   Clear
4:53 PM 78.1 °F 53.1 °F 42% 29.90 in 10.0 mi West 11.5 mph 18.4 mph N/A   Clear
5:53 PM 75.0 °F 54.0 °F 48% 29.90 in 10.0 mi West 10.4 mph 17.3 mph N/A   Clear
6:53 PM 72.0 °F 53.1 °F 51% 29.90 in 10.0 mi West 12.7 mph - N/A   Clear
7:53 PM 68.0 °F 53.1 °F 59% 29.91 in 10.0 mi West 8.1 mph - N/A   Clear
8:53 PM 64.0 °F 53.1 °F 67% 29.93 in 10.0 mi West 8.1 mph - N/A   Clear
9:53 PM 63.0 °F 53.1 °F 70% 29.95 in 10.0 mi West 3.5 mph - N/A   Clear
10:53 PM 62.1 °F 53.1 °F 72% 29.94 in 10.0 mi Calm Calm - N/A   Clear
11:53 PM 61.0 °F 53.1 °F 75% 29.94 in 10.0 mi West 3.5 mph - N/A   Clear